Total_Precipitation_Accumulation
0.00 0.00 0.00 0.01 0.00 0.01 0.01 0.03 0.08 0.07 0.08 0.15 0.21 0.27 0.32 0.31 0.28 0.25 0.24 0.26 0.25 0.27 0.36 0.51 0.74 1.01 1.47 2.15 2.80 3.05 2.85 2.23 1.82 1.57 1.44 1.26 1.11 1.01 0.94 0.87 0.78 0.69 0.69 0.64
0.01 0.02 0.01 0.01 0.01 0.01 0.02 0.03 0.09 0.10 0.08 0.08 0.17 0.35 0.43 0.45 0.37 0.26 0.22 0.20 0.20 0.27 0.42 0.70 1.05 1.46 1.91 2.22 2.42 2.36 2.01 1.44 1.10 0.89 0.75 0.62 0.54 0.54 0.54 0.51 0.51 0.53 0.54 0.54
0.02 0.03 0.01 0.01 0.02 0.03 0.04 0.04 0.09 0.13 0.08 0.07 0.17 0.43 0.51 0.47 0.39 0.27 0.21 0.20 0.28 0.43 0.79 1.33 1.81 2.01 2.00 1.94 1.68 1.28 0.93 0.67 0.57 0.44 0.36 0.27 0.23 0.23 0.24 0.26 0.29 0.32 0.33 0.33
0.01 0.03 0.02 0.02 0.03 0.04 0.05 0.04 0.03 0.04 0.05 0.16 0.28 0.53 0.53 0.49 0.44 0.29 0.29 0.34 0.43 0.64 1.06 1.55 1.85 1.81 1.58 1.28 0.88 0.57 0.44 0.35 0.30 0.25 0.24 0.22 0.18 0.18 0.19 0.20 0.22 0.23 0.22 0.23
0.02 0.02 0.03 0.03 0.03 0.03 0.03 0.03 0.02 0.05 0.09 0.14 0.27 0.47 0.62 0.59 0.56 0.29 0.24 0.26 0.35 0.58 0.81 0.91 0.94 0.89 0.72 0.53 0.47 0.43 0.35 0.35 0.35 0.29 0.26 0.23 0.19 0.18 0.19 0.20 0.21 0.24 0.25 0.23
0.02 0.02 0.02 0.02 0.02 0.02 0.03 0.03 0.05 0.09 0.13 0.30 0.43 0.54 0.71 0.69 0.58 0.28 0.16 0.19 0.32 0.43 0.46 0.40 0.31 0.26 0.24 0.22 0.23 0.24 0.24 0.32 0.38 0.36 0.31 0.28 0.24 0.21 0.19 0.17 0.18 0.20 0.22 0.25
0.07 0.04 0.03 0.03 0.03 0.03 0.03 0.04 0.11 0.30 0.47 0.55 0.39 0.42 0.71 0.72 0.45 0.21 0.10 0.09 0.14 0.25 0.33 0.35 0.30 0.23 0.19 0.15 0.14 0.13 0.13 0.16 0.19 0.23 0.24 0.24 0.24 0.21 0.19 0.17 0.14 0.16 0.17 0.20
0.12 0.09 0.03 0.02 0.03 0.03 0.03 0.03 0.07 0.15 0.19 0.27 0.30 0.68 0.86 0.47 0.24 0.12 0.05 0.03 0.08 0.16 0.21 0.24 0.22 0.18 0.14 0.10 0.08 0.06 0.06 0.07 0.07 0.08 0.10 0.12 0.15 0.16 0.18 0.21 0.17 0.16 0.18 0.19
0.02 0.03 0.03 0.03 0.04 0.04 0.03 0.02 0.02 0.03 0.05 0.14 0.32 0.61 0.52 0.26 0.18 0.07 0.03 0.02 0.04 0.08 0.10 0.10 0.09 0.07 0.06 0.05 0.05 0.04 0.03 0.03 0.03 0.03 0.05 0.06 0.09 0.13 0.15 0.17 0.17 0.17 0.21 0.21
0.00 0.00 0.01 0.02 0.03 0.03 0.03 0.02 0.02 0.02 0.04 0.07 0.20 0.50 0.53 0.28 0.15 0.04 0.02 0.02 0.03 0.05 0.06 0.06 0.05 0.04 0.03 0.02 0.02 0.02 0.02 0.02 0.01 0.01 0.02 0.02 0.04 0.07 0.10 0.10 0.12 0.14 0.16 0.18
0.00 0.00 0.01 0.01 0.03 0.03 0.02 0.02 0.02 0.02 0.03 0.03 0.08 0.22 0.19 0.13 0.06 0.02 0.01 0.01 0.02 0.03 0.03 0.03 0.02 0.02 0.02 0.01 0.01 0.02 0.02 0.02 0.02 0.01 0.01 0.01 0.03 0.04 0.06 0.10 0.13 0.14 0.13 0.12
0.00 0.00 0.01 0.02 0.03 0.03 0.02 0.02 0.03 0.03 0.02 0.01 0.02 0.08 0.07 0.06 0.03 0.01 0.00 0.00 0.00 0.00 0.01 0.01 0.01 0.01 0.01 0.01 0.01 0.02 0.02 0.02 0.02 0.02 0.02 0.01 0.01 0.02 0.04 0.07 0.10 0.11 0.12 0.11
0.00 0.01 0.02 0.05 0.07 0.04 0.03 0.03 0.03 0.02 0.02 0.01 0.06 0.11 0.05 0.02 0.01 0.00 0.00 0.00 0.00 0.00 0.00 0.00 0.00 0.01 0.01 0.01 0.02 0.02 0.02 0.01 0.01 0.01 0.01 0.01 0.01 0.01 0.02 0.03 0.05 0.07 0.09 0.11
0.00 0.00 0.01 0.02 0.03 0.03 0.03 0.04 0.04 0.02 0.01 0.01 0.03 0.10 0.02 0.00 0.00 0.00 0.00 0.00 0.00 0.00 0.00 0.00 0.00 0.00 0.00 0.01 0.01 0.01 0.00 0.00 0.00 0.01 0.01 0.01 0.02 0.02 0.02 0.02 0.03 0.04 0.07 0.09
0.00 0.00 0.00 0.00 0.01 0.02 0.04 0.05 0.04 0.01 0.01 0.02 0.02 0.03 0.01 0.00 0.00 0.00 0.00 0.00 0.00 0.00 0.00 0.00 0.00 0.01 0.01 0.01 0.01 0.02 0.02 0.03 0.03 0.04 0.04 0.05 0.05 0.06 0.06 0.06 0.06 0.06 0.07 0.08
0.00 0.00 0.00 0.00 0.01 0.02 0.04 0.07 0.03 0.01 0.00 0.00 0.00 0.00 0.00 0.00 0.01 0.02 0.02 0.01 0.02 0.02 0.03 0.04 0.04 0.05 0.04 0.04 0.04 0.04 0.04 0.04 0.05 0.05 0.05 0.04 0.05 0.05 0.06 0.06 0.06 0.06 0.08 0.11
0.00 0.00 0.00 0.00 0.01 0.01 0.06 0.05 0.02 0.01 0.00 0.00 0.01 0.02 0.02 0.03 0.05 0.08 0.11 0.12 0.13 0.12 0.10 0.07 0.05 0.03 0.02 0.01 0.01 0.01 0.01 0.01 0.02 0.03 0.03 0.04 0.05 0.05 0.06 0.06 0.07 0.09 0.12 0.16
0.00 0.01 0.00 0.00 0.00 0.04 0.04 0.01 0.01 0.01 0.01 0.01 0.03 0.05 0.09 0.12 0.17 0.23 0.27 0.21 0.11 0.06 0.03 0.01 0.00 0.00 0.00 0.00 0.00 0.01 0.01 0.01 0.02 0.02 0.03 0.04 0.06 0.07 0.08 0.11 0.13 0.17 0.20 0.22
0.01 0.01 0.01 0.00 0.01 0.02 0.01 0.02 0.03 0.03 0.02 0.05 0.10 0.15 0.18 0.18 0.13 0.09 0.06 0.03 0.01 0.01 0.00 0.00 0.00 0.00 0.00 0.01 0.01 0.01 0.01 0.02 0.02 0.04 0.07 0.09 0.11 0.13 0.16 0.20 0.24 0.28 0.31 0.30
0.02 0.02 0.02 0.01 0.01 0.03 0.03 0.04 0.07 0.07 0.12 0.13 0.12 0.09 0.05 0.02 0.01 0.00 0.00 0.00 0.00 0.00 0.00 0.00 0.00 0.00 0.01 0.01 0.02 0.02 0.02 0.03 0.04 0.05 0.08 0.11 0.17 0.23 0.26 0.30 0.34 0.38 0.40 0.39
0.01 0.01 0.01 0.01 0.01 0.02 0.04 0.03 0.03 0.06 0.07 0.03 0.01 0.01 0.00 0.00 0.00 0.00 0.00 0.00 0.00 0.00 0.00 0.00 0.00 0.00 0.01 0.02 0.03 0.04 0.06 0.06 0.06 0.07 0.09 0.12 0.18 0.28 0.31 0.36 0.41 0.46 0.47 0.48
0.00 0.00 0.01 0.01 0.03 0.02 0.02 0.01 0.00 0.00 0.00 0.00 0.00 0.00 0.00 0.00 0.00 0.00 0.00 0.00 0.00 0.00 0.00 0.00 0.00 0.00 0.01 0.03 0.06 0.08 0.10 0.09 0.10 0.12 0.14 0.15 0.22 0.30 0.32 0.42 0.46 0.52 0.56 0.58
0.00 0.00 0.00 0.01 0.01 0.00 0.00 0.00 0.00 0.00 0.00 0.00 0.00 0.00 0.00 0.00 0.00 0.00 0.00 0.00 0.00 0.00 0.00 0.00 0.00 0.01 0.02 0.04 0.08 0.12 0.13 0.13 0.15 0.17 0.17 0.21 0.25 0.37 0.52 0.56 0.53 0.57 0.62 0.62
0.00 0.00 0.00 0.00 0.00 0.00 0.00 0.00 0.00 0.00 0.00 0.00 0.00 0.00 0.00 0.00 0.00 0.00 0.00 0.00 0.00 0.00 0.00 0.00 0.01 0.02 0.04 0.05 0.08 0.12 0.15 0.19 0.22 0.22 0.21 0.23 0.30 0.43 0.67 0.80 0.74 0.68 0.68 0.67
0.00 0.00 0.00 0.00 0.00 0.00 0.00 0.00 0.00 0.00 0.00 0.00 0.00 0.00 0.00 0.00 0.00 0.00 0.00 0.00 0.00 0.00 0.01 0.01 0.03 0.05 0.06 0.07 0.09 0.13 0.18 0.25 0.28 0.26 0.24 0.25 0.32 0.46 0.68 0.85 0.85 0.71 0.69 0.66
0.00 0.00 0.00 0.00 0.00 0.00 0.00 0.00 0.00 0.00 0.00 0.00 0.00 0.00 0.00 0.00 0.00 0.00 0.00 0.00 0.01 0.01 0.03 0.04 0.06 0.08 0.10 0.12 0.15 0.17 0.22 0.29 0.35 0.34 0.29 0.30 0.35 0.46 0.66 0.89 0.96 0.76 0.58 0.56